WMKI

Details ICAO WMKI (IPH)
Name Ipoh/Sultan Azlan Shaw
Region Malaysia (Peninsular Malaysia)
Timezone Asia/Kuala_Lumpur (UTC+8.0)
Plans Departing 32
Arriving 24
Stats Elevation 130 ft / 40 m (AMSL)
Location 4.567972° 101.092195°
Runways 1
Magnetic Variation 0.111° W
Sunrise 2018-06-23 23:07:36 UTC / 2018-06-24 07:07:36 Local
Sunset 2018-06-24 11:30:46 UTC / 2018-06-24 19:30:46 Local
Advertisement - Login to hide

Runways

ID Width Length Bearing (true) Bearing (mag) Surface Threshold Offset Overrun Length
04 121 ft / 37 m 5,917 ft / 1,804 m 41.21° 41.32° Asphalt 0 ft / 0 m 0 ft / 0 m
22 121 ft / 37 m 5,917 ft / 1,804 m 221.21° 221.32° Asphalt 0 ft / 0 m 0 ft / 0 m

Approach Navaids

Runway Type Ident Frequency Range Bearing (true) Bearing (mag) Slope Elevation
04 Localiser IPO 110.50 MHz 18 nm / 33 km 41.21° 41.32° - 130 ft / 40 m (AMSL)
04 Glidescope IPO 110.50 MHz 10 nm / 19 km 41.21° 41.32° 3.00° 130 ft / 40 m (AMSL)
04 DME IPO 110.50 MHz 18 nm / 33 km - - - 130 ft / 40 m (AMSL)

Map

Weather


0- 5 10 15 20 25 30 35+ Temperature / ° C

Clouds and Precipitation
Forecast for 2018-06-24 06:00 UTC. Updated 5 hours ago

Ground ~20,000 ft ~40,000 ft Winds

METAR

WMKI 240800Z 14002KT 9999 FEW017CB BKN290 32/24 Q1007

TAF

Not found

Frequencies

Tower 122.10 MHz IPOH TWR
Tower 121.60 MHz IPOH TWR
Warning: Do not use this data for real-world aviation or navigation. No guarantee of current accuracy is given.